Regional Weather Roundup
Issued by NWS

Home | Current Version | Previous Version | Graphics & Text | Print | Product List | Glossary On
Versions: 1 2 3 4 5 6 7 8 9 10 11 12 13 14 15 16 17 18 19 20 21 22 23 24 25 26 27 28 29 30 31 32 33 34 35 36 37 38 39 40 41 42 43 44 45 46 47 48 49 50
000
ASUS45 KBOU 212007
RWRCO

WEATHER ROUNDUP FOR COLORADO
NATIONAL WEATHER SERVICE DENVER/BOULDER CO
200 PM MDT WED JUN 21 2017

NOTE: "FAIR" INDICATES FEW OR NO CLOUDS BELOW 12000 FEET WITH NO
SIGNIFICANT WEATHER AND/OR OBSTRUCTIONS TO VISIBILITY.

COZ001>005-013-030-031-212100-
...NORTHWEST COLORADO...

CITY           SKY/WX    TMP DP  RH WIND       PRES   REMARKS
CRAIG          FAIR      92  30  11 N8        30.11F
HAYDEN         FAIR      86  30  13 NW7       30.15F
MEEKER         FAIR      90  31  12 SE8       30.12F
RABBIT EARS PA FAIR      64  34  32 W9G20     30.51S
STEAMBOAT SPGS FAIR      83  37  19 SW10      30.18F
WALDEN         FAIR      79  30  17 NW13      30.28F
$$

COZ006>008-011-212100-
...WEST CENTRAL VALLEYS...

CITY           SKY/WX    TMP DP  RH WIND       PRES   REMARKS
GRAND JUNCTION FAIR      99  32   9 W9        29.98F
MONTROSE       FAIR      94  35  12 NW10      30.09F
EAGLE          MOSUNNY   90  34  13 W10       30.15F
RIFLE          FAIR      94  31  10 VRB7      30.04F
DELTA          FAIR     103  27   7 W8G26     30.02F
NUCLA          FAIR      95  28   9 CALM      30.12F
$$

COZ017>023-064>068-212100-
...SOUTHWEST COLORADO...

CITY           SKY/WX    TMP DP  RH WIND       PRES   REMARKS
DURANGO        FAIR      93  24   8 W14G24    30.14F
CORTEZ         FAIR      96  29   9 W9        30.09F
PAGOSA SPRINGS FAIR      82  24  12 SW16G36   30.27S
TELLURIDE      FAIR      76  23  13 W6        30.42S
WOLF CREEK PAS FAIR      63  32  31 SW5G16    30.67F
$$

COZ009-010-012-014-032>034-037-058>063-212100-
...CENTRAL COLORADO...

CITY           SKY/WX    TMP DP  RH WIND       PRES   REMARKS
ASPEN          FAIR      85  28  12 N12G21    30.25F
BUENA VISTA    FAIR      83  18   9 W16G31    30.25S
COPPER MTN     FAIR      64  23  20 NW16G32   30.62F
BERTHOUD PASS  FAIR      55  45  67 NW24G39   30.65S
COTTONWOOD PAS LGT RAIN  73  27  17 N3        30.43F
GUNNISON       FAIR      85  33  15 NW16      30.24F
KREMMLING      NOT AVBL
LEADVILLE      FAIR      75  17  11 W18G30    30.42F
MONARCH PASS   PTSUNNY   61  27  27 SW28G39   30.73F
SALIDA         FAIR      88  21   8 NW15G26   30.26F
SUNLIGHT       FAIR      70  28  21 W5        30.56F
WILKERSON PASS FAIR      70  18  13 N8G23     30.58S
$$

COZ069>075-212100-
...SAN LUIS VALLEY/SANGRE DE CRISTO MOUNTAINS...

CITY           SKY/WX    TMP DP  RH WIND       PRES   REMARKS
ALAMOSA        FAIR      81  35  19 W12G21    30.23F
DEL NORTE      FAIR      82  32  16 W7        30.27F
LA VETA PASS   FAIR      79  30  17 MISG      30.56F
SAGUACHE       FAIR      88  30  12 NW20G30   30.24F
$$

COZ035-036-038>040-212100-
...NORTHERN COLORADO FRONT RANGE...

CITY           SKY/WX    TMP DP  RH WIND       PRES   REMARKS
DENVER INTL AP FAIR      94  34  12 N12       30.01F
DMNS CITY PARK   N/A     95  35  12 N6        29.99F
AURORA         MOSUNNY   94  36  12 N8        30.04F
FRONT RANGE AP FAIR      95  32  11 NW7G22    30.03F
ERIE MUNI ARPT FAIR      95  33  11 W12       29.98F
BOULDER MUN AP FAIR      95  36  12 NW3       29.98F
CENTENNIAL     FAIR      88  35  15 W6        30.06F
BROOMFIELD     FAIR      93  34  12 W3        30.04F
FORT COLLINS   FAIR      96  37  12 N8G24     29.96F
LONGMONT       FAIR      97  36  12 S8        29.98F
$$

COZ041-046-047-076>085-087-088-212100-
...PIKES PEAK/PALMER DIVIDE AND SOUTHERN FOOTHILLS...

CITY           SKY/WX    TMP DP  RH WIND       PRES   REMARKS
COLO. SPRINGS  TSTM      80  47  31 E21G30    30.10R
A. F. ACADEMY  MOSUNNY   88  36  15 N9        30.11F
SCHRIEVER AFB  LGT RAIN  86  34  15 NW30G38   30.10R
CHEYENNE MTN   LGT RAIN  82  37  20 NW14      30.11S
ELLICOTT       FAIR     N/A N/A N/A N9G21     30.07F
FALCON         LGT RAIN  79  27  14 N9G67     30.16F
FORT CARSON    FAIR      88  46  23 N10       30.05S
LIMON          FAIR      96  29   9 N15G25    30.02F
MONUMENT HILL  FAIR      84  36  17 NE6       30.18F
CANON CITY     SUNNY     99  30   9 N6G16     29.98F
WALSENBURG     FAIR      97  37  12 CALM      30.05F
TRINIDAD       FAIR      99  32   9 N13G21    30.02F
$$

COZ042>045-048>051-090-091-212100-
...NORTHEAST COLORADO...

CITY           SKY/WX    TMP DP  RH WIND       PRES   REMARKS
GREELEY ARPT   FAIR      96  38  13 N13G18    29.94F
AKRON          FAIR      98  31   9 NW20G26   29.94F
BURLINGTON     FAIR      98  48  18 W14G20    29.90F
WRAY           FAIR     104  34   9 NW9G16    29.85F
YUMA           NOT AVBL
STERLING       FAIR      99  41  13 N9G16     29.86F
HOLYOKE        NOT AVBL
FORT MORGAN    FAIR      98  29   9 NW18G30   29.94F
$$

COZ086-089-092>099-212100-
...SOUTHEAST COLORADO...

CITY           SKY/WX    TMP DP  RH WIND       PRES   REMARKS
PUEBLO         FAIR      96  41  15 NE16      29.93F
LA JUNTA       FAIR     100  48  17 NE23      29.90F
LAMAR          FAIR     102  46  15 VRB6      29.82F
SPRINGFIELD      N/A     97  48  18 S3        29.90F
$$



USA.gov is the U.S. government's official web portal to all federal, state and local government web resources and services.